Kodiak, AK

12:18 AM AKST on February 18, 2018 (GMT -0900)
Kodiak

Weather History for PADQ - August, 2012

Change the Weather History Date:

Thursday, August 16, 2012

  Actual Average Record
Temperature  
Mean Temperature 52 °F 55 °F  
Max Temperature 53 °F 62 °F 78 °F (2004)
Min Temperature 50 °F 49 °F 39 °F (1981)
Degree Days  
Heating Degree Days 13 10  
Month to date heating degree days 184 146  
Since 1 June heating degree days 1006 934  
Since 1 July heating degree days 577 473  
Cooling Degree Days 0 0  
Month to date cooling degree days 0 0  
Year to date cooling degree days 0 1  
Since 1 June cooling degree days 0 1  
Growing Degree Days 1 (Base 50)    
Moisture  
Dew Point 50 °F    
Average Humidity 0    
Maximum Humidity 0    
Minimum Humidity 0    
Precipitation  
Precipitation 0.02 in 0.15 in 0.90 in (1990)
Month to date precipitation 2.09 2.25  
Year to date precipitation 32.58 44.48  
Snow  
Snow 0.00 in 0.00 in - ()
Month to date snowfall 0.0 0.0  
Since 1 June snowfall 0.0 0.0  
Since 1 July snowfall 0.0 0.0  
Snow Depth 0.00 in    
Sea Level Pressure  
Sea Level Pressure 30.00 in    
Wind  
Wind Speed 4 mph (ENE)    
Max Wind Speed 10 mph    
Max Gust Speed 13 mph    
Visibility 6 miles    
Events Fog , Rain    
T = Trace of Precipitation, MM = Missing Value Source: NWS Daily Summary

Daily Weather History Graph

Daily Weather History Graph

Search for Another Location

Airport or City:

Trip Planner

Search our weather history database for the weather conditions in past years. The results will help you decide how hot, cold, wet, or windy it might be!

Date:

Astronomy

Aug. 16, 2012 Rise Set
Actual Time 6:37 AM AKDT 9:48 PM AKDT
Civil Twilight 5:51 AM AKDT 10:34 PM AKDT
Nautical Twilight 4:48 AM AKDT 11:36 PM AKDT
Astronomical Twilight 3:03 AM AKDT 1:15 AM AKDT
Moon 5:49 AM AKDT (8/16) 8:52 PM AKDT (8/16)
Length of Visible Light 16h 42m
Length of Day
15h 10m
Waning Crescent, 1% of the Moon is Illuminated
Aug 16
Waning Crescent
Aug 17
New
Aug 24
First Quarter
Aug 31
Full
Sep 8
Last Quarter

Hourly Weather History & Observations

Time (AKDT) Temp. Dew Point Humidity Pressure Visibility Wind Dir Wind Speed Gust Speed Precip Events Conditions
12:53 AM 52.0 °F 48.9 °F 89% 30.06 in 10.0 mi NNE 5.8 mph - N/A   Overcast
1:53 AM 51.1 °F 48.9 °F 92% 30.06 in 10.0 mi ENE 5.8 mph - N/A   Overcast
2:15 AM 51.8 °F 48.2 °F 88% 30.06 in 10.0 mi NE 4.6 mph - N/A   Overcast
2:53 AM 51.1 °F 50.0 °F 96% 30.06 in 10.0 mi ENE 3.5 mph - N/A   Overcast
3:53 AM 51.1 °F 50.0 °F 96% 30.05 in 10.0 mi Calm Calm - N/A   Overcast
4:05 AM 51.8 °F 48.2 °F 88% 30.04 in 10.0 mi Calm Calm - N/A   Overcast
4:53 AM 50.0 °F 48.0 °F 93% 30.04 in 10.0 mi Calm Calm - N/A   Overcast
5:16 AM 50.0 °F 48.2 °F 94% 30.03 in 10.0 mi Calm Calm - N/A   Overcast
5:33 AM 50.0 °F 48.2 °F 94% 30.03 in 10.0 mi South 3.5 mph - N/A   Overcast
5:53 AM 50.0 °F 48.0 °F 93% 30.03 in 10.0 mi Calm Calm - N/A   Overcast
6:39 AM 50.0 °F 48.2 °F 94% 30.03 in 6.0 mi Calm Calm - 0.00 in Rain Light Rain
6:53 AM 50.0 °F 48.0 °F 93% 30.03 in 10.0 mi Calm Calm - 0.00 in   Overcast
7:53 AM 50.0 °F 48.0 °F 93% 30.02 in 10.0 mi Calm Calm - N/A   Overcast
8:53 AM 51.1 °F 48.9 °F 92% 30.02 in 10.0 mi Calm Calm - N/A   Overcast
9:09 AM 51.8 °F 48.2 °F 88% 30.02 in 10.0 mi Calm Calm - N/A   Overcast
9:53 AM 51.1 °F 48.0 °F 89% 30.01 in 10.0 mi Calm Calm - N/A   Overcast
10:53 AM 52.0 °F 50.0 °F 93% 30.01 in 9.0 mi ENE 3.5 mph - N/A   Overcast
11:19 AM 51.8 °F 50.0 °F 94% 30.01 in 6.0 mi ENE 3.5 mph - N/A   Overcast
11:32 AM 51.8 °F 51.8 °F 100% 30.01 in 2.5 mi ENE 4.6 mph - N/A   Overcast
11:46 AM 51.8 °F 51.8 °F 100% 30.01 in 4.0 mi ENE 5.8 mph - N/A   Overcast
11:53 AM 53.1 °F 51.1 °F 93% 30.01 in 4.0 mi ENE 6.9 mph - N/A   Overcast
12:53 PM 53.1 °F 51.1 °F 93% 30.01 in 4.0 mi ENE 6.9 mph - 0.00 in   Overcast
1:17 PM 51.8 °F 51.8 °F 100% 30.00 in 1.5 mi East 6.9 mph - 0.00 in Rain Light Rain
1:36 PM 51.8 °F 51.8 °F 100% 30.00 in 1.0 mi East 8.1 mph - 0.01 in Rain Light Rain
1:53 PM 52.0 °F 51.1 °F 97% 30.00 in 1.0 mi East 9.2 mph - 0.02 in Rain Light Rain
2:00 PM 51.8 °F 51.8 °F 100% 30.00 in 3.0 mi ENE 9.2 mph - 0.00 in Rain Light Rain
2:53 PM 52.0 °F 51.1 °F 97% 29.99 in 2.0 mi ENE 9.2 mph - 0.00 in   Overcast
3:14 PM 51.8 °F 51.8 °F 100% 29.99 in 3.0 mi ENE 9.2 mph - N/A   Overcast
3:53 PM 52.0 °F 51.1 °F 97% 29.99 in 4.0 mi ENE 9.2 mph - N/A   Overcast
4:08 PM 51.8 °F 51.8 °F 100% 29.98 in 2.0 mi ENE 9.2 mph - N/A   Overcast
4:23 PM 51.8 °F 51.8 °F 100% 29.98 in 0.8 mi ENE 8.1 mph - 0.00 in Rain Light Rain
4:53 PM 52.0 °F 51.1 °F 97% 29.98 in 0.5 mi ENE 10.4 mph - 0.01 in Fog , Rain Light Rain
5:02 PM 51.8 °F 51.8 °F 100% 29.97 in 2.0 mi East 10.4 mph - 0.00 in Rain Light Rain
5:53 PM 52.0 °F 51.1 °F 97% 29.97 in 2.0 mi ENE 10.4 mph - 0.00 in   Overcast
6:38 PM 51.8 °F 51.8 °F 100% 29.96 in 1.0 mi ENE 6.9 mph - 0.00 in Rain Light Rain
6:53 PM 52.0 °F 51.1 °F 97% 29.96 in 1.0 mi ENE 5.8 mph - 0.01 in Rain Light Rain
7:12 PM 51.8 °F 51.8 °F 100% 29.95 in 2.0 mi ENE 6.9 mph - 0.00 in   Overcast
7:20 PM 51.8 °F 51.8 °F 100% 29.95 in 3.0 mi ENE 6.9 mph - 0.00 in   Overcast
7:53 PM 52.0 °F 51.1 °F 97% 29.95 in 3.0 mi ENE 6.9 mph - 0.00 in   Overcast
8:07 PM 51.8 °F 51.8 °F 100% 29.95 in 0.5 mi ENE 4.6 mph - 0.00 in Fog , Rain Light Rain
8:53 PM 51.1 °F 51.1 °F 100% 29.95 in 4.0 mi East 9.2 mph - 0.01 in   Overcast
9:50 PM 51.8 °F 51.8 °F 100% 29.95 in 6.0 mi East 6.9 mph - N/A   Overcast
9:53 PM 51.1 °F 51.1 °F 100% 29.95 in 6.0 mi East 5.8 mph - N/A   Overcast
10:53 PM 51.1 °F 50.0 °F 96% 29.95 in 10.0 mi NE 5.8 mph - N/A   Overcast
11:53 PM 52.0 °F 50.0 °F 93% 29.95 in 10.0 mi East 3.5 mph - N/A   Overcast